sat.trackr.live / text

‹ back to catalog

ONEWEB-0340

NORAD 49206 · 2021-083W

PAYLOAD ACTIVE UNKNOWN

§ Identity

Operator
Country
UK
Launch date
2021-09-14
Launch site
TYMSC
Launch vehicle
Mass (kg)
RCS (m²)

Purposes: comms

External: N2YO · Heavens-Above · Gunter

§ Orbital elements

Epoch: 2026-05-25T01:36:34.967232Z

Period
109.20 min
Inclination
87.9171°
Eccentricity
0.0001914
Mean motion
13.18686419 rev/d
Perigee alt
1,188.3 km
Apogee alt
1,191.2 km
Semi-major
7,567.9 km
B*
2.2521e-5
RAAN
340.0560°
Arg perigee
91.4735°
Mean anomaly
268.6616°
Rev number
22,692

§ Raw data

ONEWEB-03401 49206U 21083W   26145.06707138  .00000022  00000+0  22521-4 0  99942 49206  87.9171 340.0560 0001914  91.4735 268.6616 13.18686419226921

JSON: /api/v1/satellites/49206 · /tle

For live sub-satellite position, see the globe view (requires WebGL).

§ Visibility from observer

Set your observer location to see the next 7 days of passes ≥ 10°. The values pass through the URL so the page stays shareable.

No JS? Fill the form by hand. The geolocation button needs JavaScript.